User: anonymous   Login
Location: Geremba
(10.4250°N, 67.2394°W)
Time: 06:55:46
(UTC+00:00)
Language:

Cosmos 1821 Rocket - Orbit

View from above orbital plane
View from above orbital plane
View from above satellite
View from above satellite

Ground track
Ground track

The orbit data is extracted from the following two-line orbital elements,

1 17526U 87017B   24201.91267555  .00000161  00000-0  14746-3 0  9996
2 17526  82.8998 264.4831 0038905 276.3779  83.2948 13.77081583862341
Epoch (UTC): 19 July 2024 21:54:15
Eccentricity: 0.0038905
inclination: 82.8998°
perigee height: 945 km
apogee height: 1003 km
right ascension of ascending node: 264.4831°
argument of perigee: 276.3779°
revolutions per day: 13.77081583
mean anomaly at epoch: 83.2948°
orbit number at epoch: 86234

The dashed part of the orbit path shows where the satellite is in the earth's shadow,  

DLR